Regional Weather Roundup
Issued by NWS

Current Version | Previous Version | Text Only | Print | Product List | Glossary On
Versions: 1 2 3 4 5 6 7 8 9 10 11 12 13 14 15 16 17 18 19 20 21 22 23 24 25 26 27 28 29 30 31 32 33 34 35 36 37 38 39 40 41 42 43 44 45 46 47 48 49 50
000
ASUS42 KKEY 030810
RWRKEY

FLORIDA REGIONAL WEATHER ROUNDUP FOR THE FLORIDA KEYS
NATIONAL WEATHER SERVICE KEY WEST FLORIDA
400 AM EDT MON AUG 03 2015

...SOUTH FLORIDA AND THE KEYS...

CITY           SKY/WX    TMP DP  RH WIND       PRES   REMARKS
FORT MYERS     PTCLDY    76  72  87 SE7       29.91F
SW REGIONAL AP PTCLDY    75  71  87 SE6       29.92F
NAPLES         PTCLDY    79  75  87 E5        29.91F
MIAMI          PTCLDY    80  73  79 SE5       29.94F
WEST KENDALL   CLEAR     80  75  84 SE5       29.94F
HOMESTEAD      CLEAR     80  75  84 SE5       29.93F
MARATHON       CLEAR     83  76  79 S5        29.93F HX  91
BOCA CHICA NAS CLOUDY    81  74  79 CALM      29.94F
KEY WEST INTL  PTCLDY    82  75  79 S3        29.94F

...INTERNATIONAL WEATHER...

CITY           SKY/WX    TMP DP  RH WIND       PRES   REMARKS
NASSAU BAHAMAS NOT AVBL
CANCUN MEXICO  PTCLDY    81  77  89 E6        29.92F
COZUMEL MEXICO PTCLDY    73  73 100 CALM      29.92F

ADJACENT COASTAL WATERS...

STATION/POSITION TIME  SKY/WX   TEMP    WIND        PRES    WAVE
                                AIR SEA DIR/SP/G            HT/PER
                 (UTC)          (F)     (DEG/KT/KT) (MB)    (FT/S)
PULASKI SHOAL LI 0700            84      90/  8/ 10 1013.6F
SAND KEY         0750            82     170/  4/  4 1014.0F
SOMBRERO KEY     0800            83     140/  8/  8 1014.5F
LONG KEY         0800            84 89  150/  6/  8 1014.4F
MOLASSES REEF    0800            82 87  130/  9/ 10 1013.7F
FOWEY ROCKS      NOT AVBL

$$



USA.gov is the U.S. government's official web portal to all federal, state and local government web resources and services.